Voltar ao catálogo

STARLINK-34096

AtivoComunicaçõesVLEO
NORAD 64043·PAYLOAD·🇺🇸 United States

Lançado May 16, 2025 de Vandenberg Space Force Base

Loading…

Próximas Passagens (próximas 24 horas)

TLE

AtualizadoSource: CelesTrak SupGP

Época: Sep 15, 2026, 02:26 UTC

1 64043C 25102X   26258.10187500  .00084718  00000+0  29475-2 0  2586
2 64043  70.0012 355.0341 0003504 268.4431 339.7555 15.29530792    11

Acompanhe STARLINK-34096 em tempo real com AllMySat

Download on the App Store